STARLINK-34743, 64937

Orbit data source: Space-Track

STARLINK-34743, 64937 is a payload satellite owned by SpaceX/Seattle (US) in SSO that was launched on Sat, 26 Jul 2025 UTC via an FALCON 9 launch vehicle from the Air Force Western Test Range (AFWTR). Payload-class satellites include a variety of spacecraft equipped with specific instruments for various scientific and technological missions. These include communications satellites like Starlink; space stations such as the ISS; scientific satellites like the Hubble; Earth observation satellites from companies like Planet Labs, Umbra, and HawkEye 360; GPS; miniature CubeSats for education and research; and military/defense satellites.

Loading next visibility...
Identifier
64937, 2025-158F
Orbit
SSO
Country
Flag of USUS
Related business
Manufacturer
SpaceX/Seattle
Mission
Operational Commercial Communications
Bus & Motor
STARLINK V2MO, Unknown motor
Mass
575 kg wet, ~530 kg dry
Launch date (UTC)
2025-07-26 (11 months ago)
Launch vehicle
FALCON 9
Launch site
Air Force Western Test Range (AFWTR)
Object type
Payload
Rocket body
Debris
Shape & HBR
Box + 2 Pan, 17.7 m
Radar Cross Section
36.964 m², Large (>1 m²)

Expand to show TLE details & history
Last TLE update: 1 day ago

TLE from 1 day ago
0 STARLINK-34743
1 64937U 25158F   26170.62645532  .00001463  00000-0  10529-3 0  9993
2 64937  97.3409  33.4785 0002425  72.4158 287.7335 15.05657653 50691
Epoch: 2026-06-19T15:02Z
TLE epoch observation values (Epoch: 2026-06-19T15:02:05.739Z)
Latitude
0.00004°
Longitude
-99.89815°
Altitude
552.049 km
Speed
7.586 km/s
True Right ascension
02h 13m 54s
True Declination
0° 00' 00"
Sunlit
Object was in daylight at epoch
Visualization orbit readout
Latitude
Unknown
Longitude
Unknown
Altitude
Unknown
Speed
Unknown
Apparent Right ascension
Unknown
Apparent Declination
Unknown
Sunlit
N/A
Visualization observer readout
Local Sidereal Time
07:13:34
Azimuth
Unknown
Elevation
Unknown
Doppler factor
Unknown
Orbital elements
Apogee altitude
548.149 km
Perigee altitude
544.791 km
Semi-major axis
6,924.607 km
Eccentricity
0.00024
Inclination
97.3409°
RAAN
33.4785°
Arg. of periapsis
72.4158°
True anomaly
287.70703°
Mean anomaly
287.7335°
Eccentric anomaly
287.72027°
Mean motion
3.76661 °/min
Orbital period
95.58 mins
BSTAR
0.00010529
Loading maneuver chart data...
Computing Atmospheric mass density...
Loading historical data...
Loading historical data...
Loading historical data...
Loading historical data...
Loading historical data...
Loading historical data...
Loading historical data...

Documentation

Showing up to 5 results
|